���t ����,���t,����,���[1m,���[3m,���[10m
2024/03/01 1:00:00,2024/03/01,01:00:00,16.01,15.99,16.04
2024/03/01 2:00:00,2024/03/01,02:00:00,15.83,15.86,15.87
2024/03/01 3:00:00,2024/03/01,03:00:00,15.83,15.8,15.81
2024/03/01 4:00:00,2024/03/01,04:00:00,15.68,15.63,15.69
2024/03/01 5:00:00,2024/03/01,05:00:00,15.76,15.74,15.8
2024/03/01 6:00:00,2024/03/01,06:00:00,15.69,15.68,15.75
2024/03/01 7:00:00,2024/03/01,07:00:00,15.61,15.61,15.68
2024/03/01 8:00:00,2024/03/01,08:00:00,15.63,15.61,15.67
2024/03/01 9:00:00,2024/03/01,09:00:00,15.64,15.67,15.68
2024/03/01 10:00:00,2024/03/01,10:00:00,15.83,15.82,15.86
2024/03/01 11:00:00,2024/03/01,11:00:00,15.96,16,15.99
2024/03/01 12:00:00,2024/03/01,12:00:00,16,15.98,15.99
2024/03/01 13:00:00,2024/03/01,13:00:00,15.89,15.91,15.93
2024/03/01 14:00:00,2024/03/01,14:00:00,15.88,15.86,15.91
2024/03/01 15:00:00,2024/03/01,15:00:00,15.83,15.86,15.93
2024/03/01 16:00:00,2024/03/01,16:00:00,15.83,15.86,15.9
2024/03/01 17:00:00,2024/03/01,17:00:00,15.86,15.92,15.94
2024/03/01 18:00:00,2024/03/01,18:00:00,15.87,15.86,15.87
2024/03/01 19:00:00,2024/03/01,19:00:00,15.77,15.74,15.75
2024/03/01 20:00:00,2024/03/01,20:00:00,15.59,15.61,15.68
2024/03/01 21:00:00,2024/03/01,21:00:00,15.59,15.61,15.63
2024/03/01 22:00:00,2024/03/01,22:00:00,15.77,15.77,15.8
2024/03/01 23:00:00,2024/03/01,23:00:00,15.77,15.79,15.87
2024/03/02 0:00:00,2024/03/02,00:00:00,15.9,15.92,15.97
2024/03/02 1:00:00,2024/03/02,01:00:00,15.83,15.86,15.87
2024/03/02 2:00:00,2024/03/02,02:00:00,15.68,15.68,15.74
2024/03/02 3:00:00,2024/03/02,03:00:00,15.58,15.61,15.63
2024/03/02 4:00:00,2024/03/02,04:00:00,15.64,15.67,15.68
2024/03/02 5:00:00,2024/03/02,05:00:00,15.7,15.72,15.74
2024/03/02 6:00:00,2024/03/02,06:00:00,15.66,15.67,15.74
2024/03/02 7:00:00,2024/03/02,07:00:00,15.62,15.66,15.68
2024/03/02 8:00:00,2024/03/02,08:00:00,15.59,15.63,15.68
2024/03/02 9:00:00,2024/03/02,09:00:00,15.64,15.66,15.68
2024/03/02 10:00:00,2024/03/02,10:00:00,15.7,15.73,15.74
2024/03/02 11:00:00,2024/03/02,11:00:00,15.83,15.87,15.87
2024/03/02 12:00:00,2024/03/02,12:00:00,15.89,15.91,15.9
2024/03/02 13:00:00,2024/03/02,13:00:00,15.89,15.92,15.93
2024/03/02 14:00:00,2024/03/02,14:00:00,15.83,15.82,15.87
2024/03/02 15:00:00,2024/03/02,15:00:00,15.75,15.73,15.74
2024/03/02 16:00:00,2024/03/02,16:00:00,15.83,15.92,15.8
2024/03/02 17:00:00,2024/03/02,17:00:00,15.88,15.86,15.92
2024/03/02 18:00:00,2024/03/02,18:00:00,15.89,15.92,15.94
2024/03/02 19:00:00,2024/03/02,19:00:00,15.83,15.86,15.87
2024/03/02 20:00:00,2024/03/02,20:00:00,15.83,15.81,15.87
2024/03/02 21:00:00,2024/03/02,21:00:00,15.7,15.73,15.74
2024/03/02 22:00:00,2024/03/02,22:00:00,15.64,15.67,15.73
2024/03/02 23:00:00,2024/03/02,23:00:00,15.77,15.79,15.83
2024/03/03 0:00:00,2024/03/03,00:00:00,15.81,15.8,15.87
2024/03/03 1:00:00,2024/03/03,01:00:00,15.77,15.79,15.86
2024/03/03 2:00:00,2024/03/03,02:00:00,15.64,15.63,15.67
2024/03/03 3:00:00,2024/03/03,03:00:00,15.89,15.92,15.93
2024/03/03 4:00:00,2024/03/03,04:00:00,15.96,15.99,16
2024/03/03 5:00:00,2024/03/03,05:00:00,15.89,15.88,15.92
2024/03/03 6:00:00,2024/03/03,06:00:00,15.64,15.67,15.72
2024/03/03 7:00:00,2024/03/03,07:00:00,15.79,15.79,15.82
2024/03/03 8:00:00,2024/03/03,08:00:00,15.82,15.79,15.81
2024/03/03 9:00:00,2024/03/03,09:00:00,15.77,15.79,15.81
2024/03/03 10:00:00,2024/03/03,10:00:00,15.77,15.79,15.8
2024/03/03 11:00:00,2024/03/03,11:00:00,15.77,15.8,15.79
2024/03/03 12:00:00,2024/03/03,12:00:00,15.96,15.99,15.99
2024/03/03 13:00:00,2024/03/03,13:00:00,15.96,15.92,15.93
2024/03/03 14:00:00,2024/03/03,14:00:00,15.9,15.92,15.93
2024/03/03 15:00:00,2024/03/03,15:00:00,15.84,15.88,15.87
2024/03/03 16:00:00,2024/03/03,16:00:00,15.83,15.81,15.87
2024/03/03 17:00:00,2024/03/03,17:00:00,15.84,15.92,15.87
2024/03/03 18:00:00,2024/03/03,18:00:00,15.83,15.86,15.87
2024/03/03 19:00:00,2024/03/03,19:00:00,15.77,15.79,15.85
2024/03/03 20:00:00,2024/03/03,20:00:00,15.81,15.79,15.86
2024/03/03 21:00:00,2024/03/03,21:00:00,15.77,15.76,15.8
2024/03/03 22:00:00,2024/03/03,22:00:00,15.7,15.69,15.74
2024/03/03 23:00:00,2024/03/03,23:00:00,15.67,15.67,15.72
2024/03/04 0:00:00,2024/03/04,00:00:00,15.64,15.67,15.73
2024/03/04 1:00:00,2024/03/04,01:00:00,15.76,15.79,15.83
2024/03/04 2:00:00,2024/03/04,02:00:00,15.77,15.79,15.8
2024/03/04 3:00:00,2024/03/04,03:00:00,15.77,15.79,15.8
2024/03/04 4:00:00,2024/03/04,04:00:00,15.76,15.77,15.8
2024/03/04 5:00:00,2024/03/04,05:00:00,15.75,15.73,15.78
2024/03/04 6:00:00,2024/03/04,06:00:00,15.71,15.73,15.76
2024/03/04 7:00:00,2024/03/04,07:00:00,15.77,15.86,15.91
2024/03/04 8:00:00,2024/03/04,08:00:00,15.88,15.91,15.93
2024/03/04 9:00:00,2024/03/04,09:00:00,15.84,15.86,15.87
2024/03/04 10:00:00,2024/03/04,10:00:00,15.86,15.86,15.81
2024/03/04 11:00:00,2024/03/04,11:00:00,15.96,15.92,15.87
2024/03/04 12:00:00,2024/03/04,12:00:00,16.08,15.98,15.93
2024/03/04 13:00:00,2024/03/04,13:00:00,16.08,16.11,16.07
2024/03/04 14:00:00,2024/03/04,14:00:00,16.16,16.11,16.05
2024/03/04 15:00:00,2024/03/04,15:00:00,16.02,16.04,16.03
2024/03/04 16:00:00,2024/03/04,16:00:00,15.96,15.96,15.99
2024/03/04 17:00:00,2024/03/04,17:00:00,15.83,15.86,15.93
2024/03/04 18:00:00,2024/03/04,18:00:00,15.99,16.05,16.12
2024/03/04 19:00:00,2024/03/04,19:00:00,15.83,15.84,15.87
2024/03/04 20:00:00,2024/03/04,20:00:00,15.89,15.91,15.93
2024/03/04 21:00:00,2024/03/04,21:00:00,15.96,15.98,15.95
2024/03/04 22:00:00,2024/03/04,22:00:00,15.88,15.9,15.93
2024/03/04 23:00:00,2024/03/04,23:00:00,15.83,15.86,15.88
2024/03/05 0:00:00,2024/03/05,00:00:00,15.83,15.81,15.88
2024/03/05 1:00:00,2024/03/05,01:00:00,15.77,15.77,15.8
2024/03/05 2:00:00,2024/03/05,02:00:00,15.74,15.74,15.8
2024/03/05 3:00:00,2024/03/05,03:00:00,15.78,15.8,15.86
2024/03/05 4:00:00,2024/03/05,04:00:00,15.77,15.79,15.81
2024/03/05 5:00:00,2024/03/05,05:00:00,15.72,15.79,15.81
2024/03/05 6:00:00,2024/03/05,06:00:00,15.64,15.79,15.8
2024/03/05 7:00:00,2024/03/05,07:00:00,15.64,15.79,15.8
2024/03/05 8:00:00,2024/03/05,08:00:00,15.7,15.79,15.81
2024/03/05 9:00:00,2024/03/05,09:00:00,15.58,15.74,15.8
2024/03/05 10:00:00,2024/03/05,10:00:00,15.65,15.79,15.8
2024/03/05 11:00:00,2024/03/05,11:00:00,15.77,15.79,15.82
2024/03/05 12:00:00,2024/03/05,12:00:00,15.77,15.86,15.83
2024/03/05 13:00:00,2024/03/05,13:00:00,15.77,15.84,15.92
2024/03/05 14:00:00,2024/03/05,14:00:00,15.83,15.85,15.93
2024/03/05 15:00:00,2024/03/05,15:00:00,15.83,15.85,15.99
2024/03/05 16:00:00,2024/03/05,16:00:00,15.82,15.84,15.99
2024/03/05 17:00:00,2024/03/05,17:00:00,15.77,15.79,15.87
2024/03/05 18:00:00,2024/03/05,18:00:00,15.79,15.82,15.86
2024/03/05 19:00:00,2024/03/05,19:00:00,15.81,15.79,15.81
2024/03/05 20:00:00,2024/03/05,20:00:00,15.83,15.86,15.87
2024/03/05 21:00:00,2024/03/05,21:00:00,15.79,15.8,15.92
2024/03/05 22:00:00,2024/03/05,22:00:00,15.72,15.73,15.74
2024/03/05 23:00:00,2024/03/05,23:00:00,15.76,15.74,15.78
2024/03/06 0:00:00,2024/03/06,00:00:00,15.83,15.82,15.8
2024/03/06 1:00:00,2024/03/06,01:00:00,15.78,15.8,15.85
2024/03/06 2:00:00,2024/03/06,02:00:00,15.77,15.79,15.83
2024/03/06 3:00:00,2024/03/06,03:00:00,15.73,15.74,15.76
2024/03/06 4:00:00,2024/03/06,04:00:00,15.76,15.74,15.8
2024/03/06 5:00:00,2024/03/06,05:00:00,15.82,15.83,15.87
2024/03/06 6:00:00,2024/03/06,06:00:00,15.77,15.79,15.8
2024/03/06 7:00:00,2024/03/06,07:00:00,15.77,15.79,15.82
2024/03/06 8:00:00,2024/03/06,08:00:00,15.77,15.77,15.8
2024/03/06 9:00:00,2024/03/06,09:00:00,15.77,15.74,15.77
2024/03/06 10:00:00,2024/03/06,10:00:00,15.64,15.63,15.68
2024/03/06 11:00:00,2024/03/06,11:00:00,15.7,15.68,15.68
2024/03/06 12:00:00,2024/03/06,12:00:00,15.7,15.73,15.73
2024/03/06 13:00:00,2024/03/06,13:00:00,15.83,15.79,15.74
2024/03/06 14:00:00,2024/03/06,14:00:00,15.81,15.81,15.87
2024/03/06 15:00:00,2024/03/06,15:00:00,15.83,15.86,15.87
2024/03/06 16:00:00,2024/03/06,16:00:00,15.77,15.78,15.8
2024/03/06 17:00:00,2024/03/06,17:00:00,15.77,15.79,15.83
2024/03/06 18:00:00,2024/03/06,18:00:00,15.7,15.73,15.75
2024/03/06 19:00:00,2024/03/06,19:00:00,15.7,15.69,15.72
2024/03/06 20:00:00,2024/03/06,20:00:00,15.64,15.62,15.61
2024/03/06 21:00:00,2024/03/06,21:00:00,15.5,15.6,15.61
2024/03/06 22:00:00,2024/03/06,22:00:00,15.7,15.77,15.74
2024/03/06 23:00:00,2024/03/06,23:00:00,15.58,15.61,15.55
2024/03/07 0:00:00,2024/03/07,00:00:00,15.52,15.48,15.51
2024/03/07 1:00:00,2024/03/07,01:00:00,15.51,15.49,15.51
2024/03/07 2:00:00,2024/03/07,02:00:00,15.54,15.54,15.61
2024/03/07 3:00:00,2024/03/07,03:00:00,15.45,15.48,15.49
2024/03/07 4:00:00,2024/03/07,04:00:00,15.33,15.36,15.36
2024/03/07 5:00:00,2024/03/07,05:00:00,15.43,15.45,15.49
2024/03/07 6:00:00,2024/03/07,06:00:00,15.58,15.63,15.67
2024/03/07 7:00:00,2024/03/07,07:00:00,15.7,15.67,15.74
2024/03/07 8:00:00,2024/03/07,08:00:00,15.62,15.64,15.67
2024/03/07 9:00:00,2024/03/07,09:00:00,15.33,15.36,15.36
2024/03/07 10:00:00,2024/03/07,10:00:00,15.39,15.42,15.44
2024/03/07 11:00:00,2024/03/07,11:00:00,15.64,15.61,15.62
2024/03/07 12:00:00,2024/03/07,12:00:00,15.53,15.48,15.54
2024/03/07 13:00:00,2024/03/07,13:00:00,16.1,16.1,15.8
2024/03/07 14:00:00,2024/03/07,14:00:00,16.14,16.01,15.91
2024/03/07 15:00:00,2024/03/07,15:00:00,15.9,15.79,15.74
2024/03/07 16:00:00,2024/03/07,16:00:00,15.67,15.67,15.67
2024/03/07 17:00:00,2024/03/07,17:00:00,15.67,15.68,15.74
2024/03/07 18:00:00,2024/03/07,18:00:00,15.7,15.73,15.74
2024/03/07 19:00:00,2024/03/07,19:00:00,15.66,15.67,15.7
2024/03/07 20:00:00,2024/03/07,20:00:00,15.67,15.67,15.72
2024/03/07 21:00:00,2024/03/07,21:00:00,15.58,15.61,15.61
2024/03/07 22:00:00,2024/03/07,22:00:00,15.45,15.48,15.49
2024/03/07 23:00:00,2024/03/07,23:00:00,15.52,15.57,15.56
2024/03/08 0:00:00,2024/03/08,00:00:00,15.45,15.48,15.51
2024/03/08 1:00:00,2024/03/08,01:00:00,15.52,15.54,15.57
2024/03/08 2:00:00,2024/03/08,02:00:00,15.42,15.42,15.49
2024/03/08 3:00:00,2024/03/08,03:00:00,15.46,15.48,15.54
2024/03/08 4:00:00,2024/03/08,04:00:00,15.33,15.36,15.36
2024/03/08 5:00:00,2024/03/08,05:00:00,15.45,15.42,15.44
2024/03/08 6:00:00,2024/03/08,06:00:00,15.45,15.47,15.49
2024/03/08 7:00:00,2024/03/08,07:00:00,15.92,15.92,15.98
2024/03/08 8:00:00,2024/03/08,08:00:00,15.96,15.98,16.01
2024/03/08 9:00:00,2024/03/08,09:00:00,15.83,15.83,15.87
2024/03/08 10:00:00,2024/03/08,10:00:00,15.52,15.5,15.55
2024/03/08 11:00:00,2024/03/08,11:00:00,15.59,15.55,15.55
2024/03/08 12:00:00,2024/03/08,12:00:00,15.7,15.73,15.68
2024/03/08 13:00:00,2024/03/08,13:00:00,15.58,15.61,15.61
2024/03/08 14:00:00,2024/03/08,14:00:00,15.58,15.61,15.61
2024/03/08 15:00:00,2024/03/08,15:00:00,15.58,15.61,15.61
2024/03/08 16:00:00,2024/03/08,16:00:00,15.52,15.5,15.55
2024/03/08 17:00:00,2024/03/08,17:00:00,15.39,15.38,15.43
2024/03/08 18:00:00,2024/03/08,18:00:00,15.73,15.71,15.77
2024/03/08 19:00:00,2024/03/08,19:00:00,15.64,15.69,15.74
2024/03/08 20:00:00,2024/03/08,20:00:00,15.75,15.79,15.81
2024/03/08 21:00:00,2024/03/08,21:00:00,15.78,15.79,15.84
2024/03/08 22:00:00,2024/03/08,22:00:00,15.51,15.51,15.55
2024/03/08 23:00:00,2024/03/08,23:00:00,15.64,15.69,15.75
2024/03/09 0:00:00,2024/03/09,00:00:00,15.55,15.48,15.48
2024/03/09 1:00:00,2024/03/09,01:00:00,15.46,15.48,15.49
2024/03/09 2:00:00,2024/03/09,02:00:00,15.45,15.5,15.51
2024/03/09 3:00:00,2024/03/09,03:00:00,15.52,15.54,15.56
2024/03/09 4:00:00,2024/03/09,04:00:00,15.39,15.38,15.43
2024/03/09 5:00:00,2024/03/09,05:00:00,15.3,15.29,15.36
2024/03/09 6:00:00,2024/03/09,06:00:00,15.39,15.41,15.43
2024/03/09 7:00:00,2024/03/09,07:00:00,15.52,15.54,15.55
2024/03/09 8:00:00,2024/03/09,08:00:00,15.76,15.84,15.8
2024/03/09 9:00:00,2024/03/09,09:00:00,15.89,15.92,15.93
2024/03/09 10:00:00,2024/03/09,10:00:00,15.64,15.56,15.61
2024/03/09 11:00:00,2024/03/09,11:00:00,15.46,15.48,15.5
2024/03/09 12:00:00,2024/03/09,12:00:00,15.45,15.53,15.62
2024/03/09 13:00:00,2024/03/09,13:00:00,15.45,15.48,15.48
2024/03/09 14:00:00,2024/03/09,14:00:00,15.64,15.57,15.49
2024/03/09 15:00:00,2024/03/09,15:00:00,15.64,15.67,15.68
2024/03/09 16:00:00,2024/03/09,16:00:00,15.6,15.54,15.64
2024/03/09 17:00:00,2024/03/09,17:00:00,15.45,15.41,15.43
2024/03/09 18:00:00,2024/03/09,18:00:00,15.77,15.78,15.8
2024/03/09 19:00:00,2024/03/09,19:00:00,15.81,15.85,15.93
2024/03/09 20:00:00,2024/03/09,20:00:00,15.89,15.92,15.94
2024/03/09 21:00:00,2024/03/09,21:00:00,15.96,15.92,15.99
2024/03/09 22:00:00,2024/03/09,22:00:00,15.63,15.61,15.67
2024/03/09 23:00:00,2024/03/09,23:00:00,15.55,15.54,15.56
2024/03/10 0:00:00,2024/03/10,00:00:00,15.58,15.61,15.67
2024/03/10 1:00:00,2024/03/10,01:00:00,15.52,15.54,15.59
2024/03/10 2:00:00,2024/03/10,02:00:00,15.2,15.23,15.29
2024/03/10 3:00:00,2024/03/10,03:00:00,15.59,15.61,15.67
2024/03/10 4:00:00,2024/03/10,04:00:00,15.52,15.5,15.55
2024/03/10 5:00:00,2024/03/10,05:00:00,15.2,15.22,15.24
2024/03/10 6:00:00,2024/03/10,06:00:00,15.32,15.3,15.36
2024/03/10 7:00:00,2024/03/10,07:00:00,15.77,15.79,15.8
2024/03/10 8:00:00,2024/03/10,08:00:00,15.58,15.62,15.61
2024/03/10 9:00:00,2024/03/10,09:00:00,15.89,15.92,15.92
2024/03/10 10:00:00,2024/03/10,10:00:00,15.89,15.86,15.8
2024/03/10 11:00:00,2024/03/10,11:00:00,15.64,15.67,15.68
2024/03/10 12:00:00,2024/03/10,12:00:00,15.71,15.68,15.76
2024/03/10 13:00:00,2024/03/10,13:00:00,15.43,15.48,15.49
2024/03/10 14:00:00,2024/03/10,14:00:00,15.39,15.42,15.55
2024/03/10 15:00:00,2024/03/10,15:00:00,15.39,15.36,15.46
2024/03/10 16:00:00,2024/03/10,16:00:00,15.5,15.43,15.49
2024/03/10 17:00:00,2024/03/10,17:00:00,15.39,15.35,15.38
2024/03/10 18:00:00,2024/03/10,18:00:00,15.33,15.36,15.37
2024/03/10 19:00:00,2024/03/10,19:00:00,15.49,15.51,15.55
2024/03/10 20:00:00,2024/03/10,20:00:00,15.94,15.92,15.93
2024/03/10 21:00:00,2024/03/10,21:00:00,16.23,16.24,16.31
2024/03/10 22:00:00,2024/03/10,22:00:00,16.17,16.19,16.24
2024/03/10 23:00:00,2024/03/10,23:00:00,15.7,15.67,15.74
2024/03/11 0:00:00,2024/03/11,00:00:00,15.66,15.68,15.74
2024/03/11 1:00:00,2024/03/11,01:00:00,15.39,15.43,15.49
2024/03/11 2:00:00,2024/03/11,02:00:00,15.64,15.68,15.74
2024/03/11 3:00:00,2024/03/11,03:00:00,15.39,15.41,15.42
2024/03/11 4:00:00,2024/03/11,04:00:00,15.58,15.6,15.63
2024/03/11 5:00:00,2024/03/11,05:00:00,15.33,15.36,15.43
2024/03/11 6:00:00,2024/03/11,06:00:00,15.15,15.17,15.24
2024/03/11 7:00:00,2024/03/11,07:00:00,15.39,15.37,15.43
2024/03/11 8:00:00,2024/03/11,08:00:00,15.45,15.42,15.48
2024/03/11 9:00:00,2024/03/11,09:00:00,16.21,16.18,16.24
2024/03/11 10:00:00,2024/03/11,10:00:00,16.02,16,15.99
2024/03/11 11:00:00,2024/03/11,11:00:00,15.77,15.71,15.74
2024/03/11 12:00:00,2024/03/11,12:00:00,15.77,15.79,15.92
2024/03/11 13:00:00,2024/03/11,13:00:00,15.71,15.78,15.8
2024/03/11 14:00:00,2024/03/11,14:00:00,15.59,15.55,15.55
2024/03/11 15:00:00,2024/03/11,15:00:00,15.45,15.48,15.43
2024/03/11 16:00:00,2024/03/11,16:00:00,15.39,15.42,15.54
2024/03/11 17:00:00,2024/03/11,17:00:00,15.39,15.42,15.43
2024/03/11 18:00:00,2024/03/11,18:00:00,15.31,15.32,15.36
2024/03/11 19:00:00,2024/03/11,19:00:00,15.52,15.51,15.55
2024/03/11 20:00:00,2024/03/11,20:00:00,15.52,15.64,15.5
2024/03/11 21:00:00,2024/03/11,21:00:00,15.89,15.94,15.99
2024/03/11 22:00:00,2024/03/11,22:00:00,15.96,15.97,15.99
2024/03/11 23:00:00,2024/03/11,23:00:00,15.7,15.67,15.79
2024/03/12 0:00:00,2024/03/12,00:00:00,15.64,15.67,15.68
2024/03/12 1:00:00,2024/03/12,01:00:00,15.58,15.6,15.68
2024/03/12 2:00:00,2024/03/12,02:00:00,15.4,15.48,15.45
2024/03/12 3:00:00,2024/03/12,03:00:00,15.26,15.29,15.3
2024/03/12 4:00:00,2024/03/12,04:00:00,15.26,15.29,15.31
2024/03/12 5:00:00,2024/03/12,05:00:00,15.33,15.31,15.36
2024/03/12 6:00:00,2024/03/12,06:00:00,15.31,15.3,15.37
2024/03/12 7:00:00,2024/03/12,07:00:00,15.2,15.23,15.24
2024/03/12 8:00:00,2024/03/12,08:00:00,15.39,15.42,15.43
2024/03/12 9:00:00,2024/03/12,09:00:00,15.75,15.74,15.8
2024/03/12 10:00:00,2024/03/12,10:00:00,15.88,15.92,15.89
2024/03/12 11:00:00,2024/03/12,11:00:00,15.91,15.86,15.99
2024/03/12 12:00:00,2024/03/12,12:00:00,15.63,15.61,15.68
2024/03/12 13:00:00,2024/03/12,13:00:00,15.46,15.48,15.49
2024/03/12 14:00:00,2024/03/12,14:00:00,15.33,15.34,15.36
2024/03/12 15:00:00,2024/03/12,15:00:00,15.39,15.38,15.43
2024/03/12 16:00:00,2024/03/12,16:00:00,15.39,15.42,15.42
2024/03/12 17:00:00,2024/03/12,17:00:00,15.33,15.36,15.42
2024/03/12 18:00:00,2024/03/12,18:00:00,15.39,15.39,15.43
2024/03/12 19:00:00,2024/03/12,19:00:00,15.2,15.23,15.24
2024/03/12 20:00:00,2024/03/12,20:00:00,15.39,15.42,15.44
2024/03/12 21:00:00,2024/03/12,21:00:00,15.7,15.73,15.78
2024/03/12 22:00:00,2024/03/12,22:00:00,15.75,15.74,15.8
2024/03/12 23:00:00,2024/03/12,23:00:00,15.77,15.79,15.8
2024/03/13 0:00:00,2024/03/13,00:00:00,15.58,15.6,15.62
2024/03/13 1:00:00,2024/03/13,01:00:00,15.39,15.41,15.43
2024/03/13 2:00:00,2024/03/13,02:00:00,15.33,15.3,15.37
2024/03/13 3:00:00,2024/03/13,03:00:00,15.39,15.37,15.49
2024/03/13 4:00:00,2024/03/13,04:00:00,15.21,15.24,15.29
2024/03/13 5:00:00,2024/03/13,05:00:00,15.27,15.29,15.36
2024/03/13 6:00:00,2024/03/13,06:00:00,15.27,15.29,15.36
2024/03/13 7:00:00,2024/03/13,07:00:00,15.2,15.22,15.24
2024/03/13 8:00:00,2024/03/13,08:00:00,15.33,15.3,15.36
2024/03/13 9:00:00,2024/03/13,09:00:00,15.28,15.29,15.31
2024/03/13 10:00:00,2024/03/13,10:00:00,15.69,15.61,15.65
2024/03/13 11:00:00,2024/03/13,11:00:00,15.89,15.88,15.99
2024/03/13 12:00:00,2024/03/13,12:00:00,15.58,15.54,15.61
2024/03/13 13:00:00,2024/03/13,13:00:00,15.77,15.73,15.81
2024/03/13 14:00:00,2024/03/13,14:00:00,15.64,15.67,15.7
2024/03/13 15:00:00,2024/03/13,15:00:00,15.4,15.42,15.45
2024/03/13 16:00:00,2024/03/13,16:00:00,15.45,15.48,15.49
2024/03/13 17:00:00,2024/03/13,17:00:00,15.43,15.43,15.48
2024/03/13 18:00:00,2024/03/13,18:00:00,15.4,15.42,15.49
2024/03/13 19:00:00,2024/03/13,19:00:00,15.37,15.38,15.43
2024/03/13 20:00:00,2024/03/13,20:00:00,15.39,15.42,15.43
2024/03/13 21:00:00,2024/03/13,21:00:00,15.52,15.54,15.58
2024/03/13 22:00:00,2024/03/13,22:00:00,15.64,15.55,15.67
2024/03/13 23:00:00,2024/03/13,23:00:00,16.08,16.11,16.12
2024/03/14 0:00:00,2024/03/14,00:00:00,15.96,15.98,15.99
2024/03/14 1:00:00,2024/03/14,01:00:00,15.58,15.61,15.61
2024/03/14 2:00:00,2024/03/14,02:00:00,15.59,15.55,15.68
2024/03/14 3:00:00,2024/03/14,03:00:00,15.58,15.66,15.68
2024/03/14 4:00:00,2024/03/14,04:00:00,15.34,15.36,15.4
2024/03/14 5:00:00,2024/03/14,05:00:00,15.4,15.42,15.49
2024/03/14 6:00:00,2024/03/14,06:00:00,15.45,15.49,15.55
2024/03/14 7:00:00,2024/03/14,07:00:00,15.45,15.45,15.49
2024/03/14 8:00:00,2024/03/14,08:00:00,15.37,15.4,15.43
2024/03/14 9:00:00,2024/03/14,09:00:00,15.58,15.56,15.61
2024/03/14 10:00:00,2024/03/14,10:00:00,15.52,15.54,15.56
2024/03/14 11:00:00,2024/03/14,11:00:00,15.79,15.79,15.85
2024/03/14 12:00:00,2024/03/14,12:00:00,15.83,15.81,15.83
2024/03/14 13:00:00,2024/03/14,13:00:00,15.79,15.74,15.93
2024/03/14 14:00:00,2024/03/14,14:00:00,15.64,15.61,15.67
2024/03/14 15:00:00,2024/03/14,15:00:00,15.58,15.61,15.61
2024/03/14 16:00:00,2024/03/14,16:00:00,15.67,15.73,15.77
2024/03/14 17:00:00,2024/03/14,17:00:00,15.55,15.55,15.61
2024/03/14 18:00:00,2024/03/14,18:00:00,15.64,15.67,15.79
2024/03/14 19:00:00,2024/03/14,19:00:00,15.63,15.61,15.65
2024/03/14 20:00:00,2024/03/14,20:00:00,15.52,15.5,15.55
2024/03/14 21:00:00,2024/03/14,21:00:00,15.64,15.67,15.68
2024/03/14 22:00:00,2024/03/14,22:00:00,15.64,15.67,15.68
2024/03/14 23:00:00,2024/03/14,23:00:00,15.92,15.98,15.99
2024/03/15 0:00:00,2024/03/15,00:00:00,15.96,15.92,15.94
2024/03/15 1:00:00,2024/03/15,01:00:00,15.96,15.97,15.99
2024/03/15 2:00:00,2024/03/15,02:00:00,15.66,15.72,15.71
2024/03/15 3:00:00,2024/03/15,03:00:00,15.64,15.65,15.68
2024/03/15 4:00:00,2024/03/15,04:00:00,15.69,15.68,15.8
2024/03/15 5:00:00,2024/03/15,05:00:00,15.58,15.6,15.68
2024/03/15 6:00:00,2024/03/15,06:00:00,15.63,15.61,15.61
2024/03/15 7:00:00,2024/03/15,07:00:00,15.64,15.67,15.72
2024/03/15 8:00:00,2024/03/15,08:00:00,15.46,15.48,15.54
2024/03/15 9:00:00,2024/03/15,09:00:00,15.52,15.51,15.55
2024/03/15 10:00:00,2024/03/15,10:00:00,15.69,15.67,15.7
2024/03/15 11:00:00,2024/03/15,11:00:00,15.69,15.67,15.69
2024/03/15 12:00:00,2024/03/15,12:00:00,15.73,15.73,15.76
2024/03/15 13:00:00,2024/03/15,13:00:00,15.92,15.79,15.75
2024/03/15 14:00:00,2024/03/15,14:00:00,15.72,15.7,15.74
2024/03/15 15:00:00,2024/03/15,15:00:00,15.74,15.73,15.74
2024/03/15 16:00:00,2024/03/15,16:00:00,15.65,15.61,15.69
2024/03/15 17:00:00,2024/03/15,17:00:00,15.64,15.65,15.68
2024/03/15 18:00:00,2024/03/15,18:00:00,15.7,15.68,15.74
2024/03/15 19:00:00,2024/03/15,19:00:00,15.68,15.67,15.74
2024/03/15 20:00:00,2024/03/15,20:00:00,15.7,15.7,15.74
2024/03/15 21:00:00,2024/03/15,21:00:00,15.52,15.51,15.55
2024/03/15 22:00:00,2024/03/15,22:00:00,15.58,15.62,15.68
2024/03/15 23:00:00,2024/03/15,23:00:00,15.58,15.61,15.62
2024/03/16 0:00:00,2024/03/16,00:00:00,15.77,15.79,15.81
2024/03/16 1:00:00,2024/03/16,01:00:00,15.7,15.67,15.69
2024/03/16 2:00:00,2024/03/16,02:00:00,15.65,15.67,15.68
2024/03/16 3:00:00,2024/03/16,03:00:00,15.58,15.61,15.61
2024/03/16 4:00:00,2024/03/16,04:00:00,15.57,15.54,15.61
2024/03/16 5:00:00,2024/03/16,05:00:00,15.58,15.63,15.68
2024/03/16 6:00:00,2024/03/16,06:00:00,15.58,15.59,15.67
2024/03/16 7:00:00,2024/03/16,07:00:00,15.58,15.61,15.68
2024/03/16 8:00:00,2024/03/16,08:00:00,15.64,15.63,15.62
2024/03/16 9:00:00,2024/03/16,09:00:00,15.62,15.61,15.62
2024/03/16 10:00:00,2024/03/16,10:00:00,15.65,15.66,15.62
2024/03/16 11:00:00,2024/03/16,11:00:00,15.76,15.74,15.76
2024/03/16 12:00:00,2024/03/16,12:00:00,15.84,15.79,15.79
2024/03/16 13:00:00,2024/03/16,13:00:00,15.96,15.86,15.79
2024/03/16 14:00:00,2024/03/16,14:00:00,15.83,15.79,15.79
2024/03/16 15:00:00,2024/03/16,15:00:00,15.77,15.75,15.8
2024/03/16 16:00:00,2024/03/16,16:00:00,15.77,15.75,15.8
2024/03/16 17:00:00,2024/03/16,17:00:00,15.81,15.79,15.8
2024/03/16 18:00:00,2024/03/16,18:00:00,15.77,15.79,15.8
2024/03/16 19:00:00,2024/03/16,19:00:00,15.77,15.79,15.81
2024/03/16 20:00:00,2024/03/16,20:00:00,15.77,15.8,15.85
2024/03/16 21:00:00,2024/03/16,21:00:00,15.77,15.74,15.74
2024/03/16 22:00:00,2024/03/16,22:00:00,15.7,15.67,15.73
2024/03/16 23:00:00,2024/03/16,23:00:00,15.77,15.79,15.8
2024/03/17 0:00:00,2024/03/17,00:00:00,15.77,15.79,15.8
2024/03/17 1:00:00,2024/03/17,01:00:00,15.75,15.74,15.79
2024/03/17 2:00:00,2024/03/17,02:00:00,15.76,15.76,15.8
2024/03/17 3:00:00,2024/03/17,03:00:00,15.76,15.75,15.8
2024/03/17 4:00:00,2024/03/17,04:00:00,15.76,15.77,15.8
2024/03/17 5:00:00,2024/03/17,05:00:00,15.71,15.73,15.78
2024/03/17 6:00:00,2024/03/17,06:00:00,15.72,15.73,15.8
2024/03/17 7:00:00,2024/03/17,07:00:00,15.75,15.74,15.8
2024/03/17 8:00:00,2024/03/17,08:00:00,15.73,15.73,15.79
2024/03/17 9:00:00,2024/03/17,09:00:00,15.76,15.77,15.8
2024/03/17 10:00:00,2024/03/17,10:00:00,15.76,15.76,15.8
2024/03/17 11:00:00,2024/03/17,11:00:00,15.7,15.79,15.81
2024/03/17 12:00:00,2024/03/17,12:00:00,15.78,15.83,15.87
2024/03/17 13:00:00,2024/03/17,13:00:00,15.79,15.8,15.85
2024/03/17 14:00:00,2024/03/17,14:00:00,15.76,15.76,15.8
2024/03/17 15:00:00,2024/03/17,15:00:00,15.76,15.76,15.8
2024/03/17 16:00:00,2024/03/17,16:00:00,15.7,15.73,15.74
2024/03/17 17:00:00,2024/03/17,17:00:00,15.7,15.73,15.77
2024/03/17 18:00:00,2024/03/17,18:00:00,15.71,15.73,15.8
2024/03/17 19:00:00,2024/03/17,19:00:00,15.68,15.67,15.74
2024/03/17 20:00:00,2024/03/17,20:00:00,15.7,15.72,15.79
2024/03/17 21:00:00,2024/03/17,21:00:00,15.71,15.74,15.75
2024/03/17 22:00:00,2024/03/17,22:00:00,15.7,15.7,15.74
2024/03/17 23:00:00,2024/03/17,23:00:00,15.7,15.73,15.74
2024/03/18 0:00:00,2024/03/18,00:00:00,15.7,15.67,15.74
2024/03/18 1:00:00,2024/03/18,01:00:00,15.67,15.68,15.74
2024/03/18 2:00:00,2024/03/18,02:00:00,15.71,15.74,15.86
2024/03/18 3:00:00,2024/03/18,03:00:00,15.74,15.76,15.8